Index of /20260503/WXO-DD/model_rdps/10km/12/026
Name Last modified Size Description
Parent Directory -
20260503T12Z_MSC_RDPS_AbsoluteVorticity_IsbL-0250_RLatLon0.09_PT026H.grib2 2026-05-03 15:01 618K
20260503T12Z_MSC_RDPS_AbsoluteVorticity_IsbL-0500_RLatLon0.09_PT026H.grib2 2026-05-03 15:01 575K
20260503T12Z_MSC_RDPS_AbsoluteVorticity_IsbL-0700_RLatLon0.09_PT026H.grib2 2026-05-03 15:01 620K
20260503T12Z_MSC_RDPS_AbsoluteVorticity_IsbL-0850_RLatLon0.09_PT026H.grib2 2026-05-03 15:01 802K
20260503T12Z_MSC_RDPS_AirTemp_AGL-120m_RLatLon0.09_PT026H.grib2 2026-05-03 15:01 385K
20260503T12Z_MSC_RDPS_AirTemp_AGL-2m_RLatLon0.09_PT026H.grib2 2026-05-03 15:01 631K
20260503T12Z_MSC_RDPS_AirTemp_AGL-40m_RLatLon0.09_PT026H.grib2 2026-05-03 15:01 400K
20260503T12Z_MSC_RDPS_AirTemp_AGL-80m_RLatLon0.09_PT026H.grib2 2026-05-03 15:01 393K
20260503T12Z_MSC_RDPS_AirTemp_IsbL-0001_RLatLon0.09_PT026H.grib2 2026-05-03 15:01 320K
20260503T12Z_MSC_RDPS_AirTemp_IsbL-0005_RLatLon0.09_PT026H.grib2 2026-05-03 15:01 287K
20260503T12Z_MSC_RDPS_AirTemp_IsbL-0010_RLatLon0.09_PT026H.grib2 2026-05-03 15:01 301K
20260503T12Z_MSC_RDPS_AirTemp_IsbL-0020_RLatLon0.09_PT026H.grib2 2026-05-03 15:01 416K
20260503T12Z_MSC_RDPS_AirTemp_IsbL-0030_RLatLon0.09_PT026H.grib2 2026-05-03 15:01 338K
20260503T12Z_MSC_RDPS_AirTemp_IsbL-0050_RLatLon0.09_PT026H.grib2 2026-05-03 15:01 319K
20260503T12Z_MSC_RDPS_AirTemp_IsbL-0100_RLatLon0.09_PT026H.grib2 2026-05-03 15:01 431K
20260503T12Z_MSC_RDPS_AirTemp_IsbL-0150_RLatLon0.09_PT026H.grib2 2026-05-03 15:01 422K
20260503T12Z_MSC_RDPS_AirTemp_IsbL-0175_RLatLon0.09_PT026H.grib2 2026-05-03 15:01 412K
20260503T12Z_MSC_RDPS_AirTemp_IsbL-0200_RLatLon0.09_PT026H.grib2 2026-05-03 15:01 417K
20260503T12Z_MSC_RDPS_AirTemp_IsbL-0225_RLatLon0.09_PT026H.grib2 2026-05-03 15:01 422K
20260503T12Z_MSC_RDPS_AirTemp_IsbL-0250_RLatLon0.09_PT026H.grib2 2026-05-03 15:01 427K
20260503T12Z_MSC_RDPS_AirTemp_IsbL-0275_RLatLon0.09_PT026H.grib2 2026-05-03 15:01 408K
20260503T12Z_MSC_RDPS_AirTemp_IsbL-0300_RLatLon0.09_PT026H.grib2 2026-05-03 15:01 413K
20260503T12Z_MSC_RDPS_AirTemp_IsbL-0350_RLatLon0.09_PT026H.grib2 2026-05-03 15:01 430K
20260503T12Z_MSC_RDPS_AirTemp_IsbL-0400_RLatLon0.09_PT026H.grib2 2026-05-03 15:01 433K
20260503T12Z_MSC_RDPS_AirTemp_IsbL-0450_RLatLon0.09_PT026H.grib2 2026-05-03 15:01 440K
20260503T12Z_MSC_RDPS_AirTemp_IsbL-0500_RLatLon0.09_PT026H.grib2 2026-05-03 15:01 450K
20260503T12Z_MSC_RDPS_AirTemp_IsbL-0550_RLatLon0.09_PT026H.grib2 2026-05-03 15:01 469K
20260503T12Z_MSC_RDPS_AirTemp_IsbL-0600_RLatLon0.09_PT026H.grib2 2026-05-03 15:01 448K
20260503T12Z_MSC_RDPS_AirTemp_IsbL-0650_RLatLon0.09_PT026H.grib2 2026-05-03 15:01 463K
20260503T12Z_MSC_RDPS_AirTemp_IsbL-0700_RLatLon0.09_PT026H.grib2 2026-05-03 15:01 488K
20260503T12Z_MSC_RDPS_AirTemp_IsbL-0750_RLatLon0.09_PT026H.grib2 2026-05-03 15:01 527K
20260503T12Z_MSC_RDPS_AirTemp_IsbL-0800_RLatLon0.09_PT026H.grib2 2026-05-03 15:01 586K
20260503T12Z_MSC_RDPS_AirTemp_IsbL-0850_RLatLon0.09_PT026H.grib2 2026-05-03 15:01 648K
20260503T12Z_MSC_RDPS_AirTemp_IsbL-0875_RLatLon0.09_PT026H.grib2 2026-05-03 15:01 666K
20260503T12Z_MSC_RDPS_AirTemp_IsbL-0900_RLatLon0.09_PT026H.grib2 2026-05-03 15:01 673K
20260503T12Z_MSC_RDPS_AirTemp_IsbL-0925_RLatLon0.09_PT026H.grib2 2026-05-03 15:01 667K
20260503T12Z_MSC_RDPS_AirTemp_IsbL-0950_RLatLon0.09_PT026H.grib2 2026-05-03 15:01 534K
20260503T12Z_MSC_RDPS_AirTemp_IsbL-0970_RLatLon0.09_PT026H.grib2 2026-05-03 15:01 527K
20260503T12Z_MSC_RDPS_AirTemp_IsbL-0985_RLatLon0.09_PT026H.grib2 2026-05-03 15:01 517K
20260503T12Z_MSC_RDPS_AirTemp_IsbL-1000_RLatLon0.09_PT026H.grib2 2026-05-03 15:01 505K
20260503T12Z_MSC_RDPS_AirTemp_IsbL-1015_RLatLon0.09_PT026H.grib2 2026-05-03 15:01 506K
20260503T12Z_MSC_RDPS_Albedo_Sfc_RLatLon0.09_PT026H.grib2 2026-05-03 15:01 157K
20260503T12Z_MSC_RDPS_CAPE_Sfc_RLatLon0.09_PT026H.grib2 2026-05-03 15:01 1.7M
20260503T12Z_MSC_RDPS_CIN_Sfc_RLatLon0.09_PT026H.grib2 2026-05-03 15:01 1.1M
20260503T12Z_MSC_RDPS_CloudWater_EAtm_RLatLon0.09_PT026H.grib2 2026-05-03 15:01 223K
20260503T12Z_MSC_RDPS_ConvectivePrecip-Accum_Sfc_RLatLon0.09_PT026H.grib2 2026-05-03 15:01 917K
20260503T12Z_MSC_RDPS_DewPointDepression_AGL-2m_RLatLon0.09_PT026H.grib2 2026-05-03 15:01 415K
20260503T12Z_MSC_RDPS_DewPointDepression_IsbL-0001_RLatLon0.09_PT026H.grib2 2026-05-03 15:01 193
20260503T12Z_MSC_RDPS_DewPointDepression_IsbL-0005_RLatLon0.09_PT026H.grib2 2026-05-03 15:01 193
20260503T12Z_MSC_RDPS_DewPointDepression_IsbL-0010_RLatLon0.09_PT026H.grib2 2026-05-03 15:01 193
20260503T12Z_MSC_RDPS_DewPointDepression_IsbL-0020_RLatLon0.09_PT026H.grib2 2026-05-03 15:01 193
20260503T12Z_MSC_RDPS_DewPointDepression_IsbL-0030_RLatLon0.09_PT026H.grib2 2026-05-03 15:01 193
20260503T12Z_MSC_RDPS_DewPointDepression_IsbL-0050_RLatLon0.09_PT026H.grib2 2026-05-03 15:01 80K
20260503T12Z_MSC_RDPS_DewPointDepression_IsbL-0100_RLatLon0.09_PT026H.grib2 2026-05-03 15:01 118K
20260503T12Z_MSC_RDPS_DewPointDepression_IsbL-0150_RLatLon0.09_PT026H.grib2 2026-05-03 15:01 141K
20260503T12Z_MSC_RDPS_DewPointDepression_IsbL-0175_RLatLon0.09_PT026H.grib2 2026-05-03 15:01 176K
20260503T12Z_MSC_RDPS_DewPointDepression_IsbL-0200_RLatLon0.09_PT026H.grib2 2026-05-03 15:01 217K
20260503T12Z_MSC_RDPS_DewPointDepression_IsbL-0225_RLatLon0.09_PT026H.grib2 2026-05-03 15:01 263K
20260503T12Z_MSC_RDPS_DewPointDepression_IsbL-0250_RLatLon0.09_PT026H.grib2 2026-05-03 15:01 302K
20260503T12Z_MSC_RDPS_DewPointDepression_IsbL-0275_RLatLon0.09_PT026H.grib2 2026-05-03 15:01 311K
20260503T12Z_MSC_RDPS_DewPointDepression_IsbL-0300_RLatLon0.09_PT026H.grib2 2026-05-03 15:01 329K
20260503T12Z_MSC_RDPS_DewPointDepression_IsbL-0350_RLatLon0.09_PT026H.grib2 2026-05-03 15:01 337K
20260503T12Z_MSC_RDPS_DewPointDepression_IsbL-0400_RLatLon0.09_PT026H.grib2 2026-05-03 15:01 343K
20260503T12Z_MSC_RDPS_DewPointDepression_IsbL-0450_RLatLon0.09_PT026H.grib2 2026-05-03 15:01 345K
20260503T12Z_MSC_RDPS_DewPointDepression_IsbL-0500_RLatLon0.09_PT026H.grib2 2026-05-03 15:01 349K
20260503T12Z_MSC_RDPS_DewPointDepression_IsbL-0550_RLatLon0.09_PT026H.grib2 2026-05-03 15:01 356K
20260503T12Z_MSC_RDPS_DewPointDepression_IsbL-0600_RLatLon0.09_PT026H.grib2 2026-05-03 15:01 368K
20260503T12Z_MSC_RDPS_DewPointDepression_IsbL-0650_RLatLon0.09_PT026H.grib2 2026-05-03 15:01 377K
20260503T12Z_MSC_RDPS_DewPointDepression_IsbL-0700_RLatLon0.09_PT026H.grib2 2026-05-03 15:01 388K
20260503T12Z_MSC_RDPS_DewPointDepression_IsbL-0750_RLatLon0.09_PT026H.grib2 2026-05-03 15:01 406K
20260503T12Z_MSC_RDPS_DewPointDepression_IsbL-0800_RLatLon0.09_PT026H.grib2 2026-05-03 15:01 447K
20260503T12Z_MSC_RDPS_DewPointDepression_IsbL-0850_RLatLon0.09_PT026H.grib2 2026-05-03 15:01 478K
20260503T12Z_MSC_RDPS_DewPointDepression_IsbL-0875_RLatLon0.09_PT026H.grib2 2026-05-03 15:01 475K
20260503T12Z_MSC_RDPS_DewPointDepression_IsbL-0900_RLatLon0.09_PT026H.grib2 2026-05-03 15:01 464K
20260503T12Z_MSC_RDPS_DewPointDepression_IsbL-0925_RLatLon0.09_PT026H.grib2 2026-05-03 15:01 450K
20260503T12Z_MSC_RDPS_DewPointDepression_IsbL-0950_RLatLon0.09_PT026H.grib2 2026-05-03 15:01 448K
20260503T12Z_MSC_RDPS_DewPointDepression_IsbL-0970_RLatLon0.09_PT026H.grib2 2026-05-03 15:01 442K
20260503T12Z_MSC_RDPS_DewPointDepression_IsbL-0985_RLatLon0.09_PT026H.grib2 2026-05-03 15:01 441K
20260503T12Z_MSC_RDPS_DewPointDepression_IsbL-1000_RLatLon0.09_PT026H.grib2 2026-05-03 15:01 440K
20260503T12Z_MSC_RDPS_DewPointDepression_IsbL-1015_RLatLon0.09_PT026H.grib2 2026-05-03 15:01 431K
20260503T12Z_MSC_RDPS_DewPoint_AGL-2m_RLatLon0.09_PT026H.grib2 2026-05-03 15:01 403K
20260503T12Z_MSC_RDPS_DownwardLongwaveRadiationFlux-Accum_Sfc_RLatLon0.09_PT026H.grib2 2026-05-03 15:01 448K
20260503T12Z_MSC_RDPS_DownwardShortwaveRadiationFlux-Accum_NTAtm_RLatLon0.09_PT026H.grib2 2026-05-03 15:01 153K
20260503T12Z_MSC_RDPS_DownwardShortwaveRadiationFlux-Accum_Sfc_RLatLon0.09_PT026H.grib2 2026-05-03 15:01 656K
20260503T12Z_MSC_RDPS_FreezingRain-Accum1h_Sfc_RLatLon0.09_PT026H.grib2 2026-05-03 15:01 32K
20260503T12Z_MSC_RDPS_FreezingRain-Accum_Sfc_RLatLon0.09_PT026H.grib2 2026-05-03 15:01 112K
20260503T12Z_MSC_RDPS_GeopotentialHeight_IsbL-0001_RLatLon0.09_PT026H.grib2 2026-05-03 15:01 354K
20260503T12Z_MSC_RDPS_GeopotentialHeight_IsbL-0005_RLatLon0.09_PT026H.grib2 2026-05-03 15:01 311K
20260503T12Z_MSC_RDPS_GeopotentialHeight_IsbL-0010_RLatLon0.09_PT026H.grib2 2026-05-03 15:01 311K
20260503T12Z_MSC_RDPS_GeopotentialHeight_IsbL-0020_RLatLon0.09_PT026H.grib2 2026-05-03 15:01 409K
20260503T12Z_MSC_RDPS_GeopotentialHeight_IsbL-0030_RLatLon0.09_PT026H.grib2 2026-05-03 15:01 412K
20260503T12Z_MSC_RDPS_GeopotentialHeight_IsbL-0050_RLatLon0.09_PT026H.grib2 2026-05-03 15:01 316K
20260503T12Z_MSC_RDPS_GeopotentialHeight_IsbL-0100_RLatLon0.09_PT026H.grib2 2026-05-03 15:01 291K
20260503T12Z_MSC_RDPS_GeopotentialHeight_IsbL-0150_RLatLon0.09_PT026H.grib2 2026-05-03 15:01 232K
20260503T12Z_MSC_RDPS_GeopotentialHeight_IsbL-0175_RLatLon0.09_PT026H.grib2 2026-05-03 15:01 235K
20260503T12Z_MSC_RDPS_GeopotentialHeight_IsbL-0200_RLatLon0.09_PT026H.grib2 2026-05-03 15:01 238K
20260503T12Z_MSC_RDPS_GeopotentialHeight_IsbL-0225_RLatLon0.09_PT026H.grib2 2026-05-03 15:01 240K
20260503T12Z_MSC_RDPS_GeopotentialHeight_IsbL-0250_RLatLon0.09_PT026H.grib2 2026-05-03 15:01 240K
20260503T12Z_MSC_RDPS_GeopotentialHeight_IsbL-0275_RLatLon0.09_PT026H.grib2 2026-05-03 15:01 239K
20260503T12Z_MSC_RDPS_GeopotentialHeight_IsbL-0300_RLatLon0.09_PT026H.grib2 2026-05-03 15:01 240K
20260503T12Z_MSC_RDPS_GeopotentialHeight_IsbL-0350_RLatLon0.09_PT026H.grib2 2026-05-03 15:01 235K
20260503T12Z_MSC_RDPS_GeopotentialHeight_IsbL-0400_RLatLon0.09_PT026H.grib2 2026-05-03 15:01 231K
20260503T12Z_MSC_RDPS_GeopotentialHeight_IsbL-0450_RLatLon0.09_PT026H.grib2 2026-05-03 15:01 302K
20260503T12Z_MSC_RDPS_GeopotentialHeight_IsbL-0500_RLatLon0.09_PT026H.grib2 2026-05-03 15:01 297K
20260503T12Z_MSC_RDPS_GeopotentialHeight_IsbL-0550_RLatLon0.09_PT026H.grib2 2026-05-03 15:01 293K
20260503T12Z_MSC_RDPS_GeopotentialHeight_IsbL-0600_RLatLon0.09_PT026H.grib2 2026-05-03 15:01 290K
20260503T12Z_MSC_RDPS_GeopotentialHeight_IsbL-0650_RLatLon0.09_PT026H.grib2 2026-05-03 15:01 259K
20260503T12Z_MSC_RDPS_GeopotentialHeight_IsbL-0700_RLatLon0.09_PT026H.grib2 2026-05-03 15:01 257K
20260503T12Z_MSC_RDPS_GeopotentialHeight_IsbL-0750_RLatLon0.09_PT026H.grib2 2026-05-03 15:01 344K
20260503T12Z_MSC_RDPS_GeopotentialHeight_IsbL-0800_RLatLon0.09_PT026H.grib2 2026-05-03 15:01 353K
20260503T12Z_MSC_RDPS_GeopotentialHeight_IsbL-0850_RLatLon0.09_PT026H.grib2 2026-05-03 15:01 364K
20260503T12Z_MSC_RDPS_GeopotentialHeight_IsbL-0875_RLatLon0.09_PT026H.grib2 2026-05-03 15:01 367K
20260503T12Z_MSC_RDPS_GeopotentialHeight_IsbL-0900_RLatLon0.09_PT026H.grib2 2026-05-03 15:01 370K
20260503T12Z_MSC_RDPS_GeopotentialHeight_IsbL-0925_RLatLon0.09_PT026H.grib2 2026-05-03 15:01 372K
20260503T12Z_MSC_RDPS_GeopotentialHeight_IsbL-0950_RLatLon0.09_PT026H.grib2 2026-05-03 15:01 375K
20260503T12Z_MSC_RDPS_GeopotentialHeight_IsbL-0970_RLatLon0.09_PT026H.grib2 2026-05-03 15:01 381K
20260503T12Z_MSC_RDPS_GeopotentialHeight_IsbL-0985_RLatLon0.09_PT026H.grib2 2026-05-03 15:01 389K
20260503T12Z_MSC_RDPS_GeopotentialHeight_IsbL-1000_RLatLon0.09_PT026H.grib2 2026-05-03 15:01 403K
20260503T12Z_MSC_RDPS_GeopotentialHeight_IsbL-1015_RLatLon0.09_PT026H.grib2 2026-05-03 15:01 321K
20260503T12Z_MSC_RDPS_Humidex_Sfc_RLatLon0.09_PT026H.grib2 2026-05-03 15:01 2.4M
20260503T12Z_MSC_RDPS_IcePellets-Accum1h_Sfc_RLatLon0.09_PT026H.grib2 2026-05-03 15:01 4.8K
20260503T12Z_MSC_RDPS_IcePellets-Accum_Sfc_RLatLon0.09_PT026H.grib2 2026-05-03 15:01 13K
20260503T12Z_MSC_RDPS_KIndex_Sfc_RLatLon0.09_PT026H.grib2 2026-05-03 15:01 2.5M
20260503T12Z_MSC_RDPS_LatentHeatNetFlux_Sfc_RLatLon0.09_PT026H.grib2 2026-05-03 15:01 474K
20260503T12Z_MSC_RDPS_LiftedIndex-MU-VT_IsbL-0500_RLatLon0.09_PT026H.grib2 2026-05-03 15:01 2.4M
20260503T12Z_MSC_RDPS_NetLongwaveRadiationFlux-Accum_Sfc_RLatLon0.09_PT026H.grib2 2026-05-03 15:01 601K
20260503T12Z_MSC_RDPS_NetShortwaveRadiationFlux-Accum_Sfc_RLatLon0.09_PT026H.grib2 2026-05-03 15:01 654K
20260503T12Z_MSC_RDPS_PlanetaryBoundaryLayerHeight_Sfc_RLatLon0.09_PT026H.grib2 2026-05-03 15:01 1.2M
20260503T12Z_MSC_RDPS_Precip-Accum1h_Sfc_RLatLon0.09_PT026H.grib2 2026-05-03 15:01 1.3M
20260503T12Z_MSC_RDPS_Precip-Accum_Sfc_RLatLon0.09_PT026H.grib2 2026-05-03 15:01 1.9M
20260503T12Z_MSC_RDPS_PrecipRate_Sfc_RLatLon0.09_PT026H.grib2 2026-05-03 15:01 185K
20260503T12Z_MSC_RDPS_PrecipType-Instant_Sfc_RLatLon0.09_PT026H.grib2 2026-05-03 15:01 608K
20260503T12Z_MSC_RDPS_Pressure-Trend3h_Sfc_RLatLon0.09_PT026H.grib2 2026-05-03 15:01 1.2M
20260503T12Z_MSC_RDPS_Pressure_MSL_RLatLon0.09_PT026H.grib2 2026-05-03 15:01 331K
20260503T12Z_MSC_RDPS_Pressure_PVU-1.5_RLatLon0.09_PT026H.grib2 2026-05-03 15:01 2.3M
20260503T12Z_MSC_RDPS_Pressure_PVU-1_RLatLon0.09_PT026H.grib2 2026-05-03 15:01 2.4M
20260503T12Z_MSC_RDPS_Pressure_PVU-2_RLatLon0.09_PT026H.grib2 2026-05-03 15:01 2.4M
20260503T12Z_MSC_RDPS_Pressure_Sfc_RLatLon0.09_PT026H.grib2 2026-05-03 15:01 501K
20260503T12Z_MSC_RDPS_RadiativeTemp_Sfc_RLatLon0.09_PT026H.grib2 2026-05-03 15:01 308K
20260503T12Z_MSC_RDPS_Rain-Accum1h_Sfc_RLatLon0.09_PT026H.grib2 2026-05-03 15:01 653K
20260503T12Z_MSC_RDPS_Rain-Accum_Sfc_RLatLon0.09_PT026H.grib2 2026-05-03 15:01 1.5M
20260503T12Z_MSC_RDPS_RelativeHumidity_AGL-2m_RLatLon0.09_PT026H.grib2 2026-05-03 15:01 1.0M
20260503T12Z_MSC_RDPS_RelativeHumidity_IsbL-0010_RLatLon0.09_PT026H.grib2 2026-05-03 15:01 629K
20260503T12Z_MSC_RDPS_RelativeHumidity_IsbL-0020_RLatLon0.09_PT026H.grib2 2026-05-03 15:01 680K
20260503T12Z_MSC_RDPS_RelativeHumidity_IsbL-0030_RLatLon0.09_PT026H.grib2 2026-05-03 15:01 605K
20260503T12Z_MSC_RDPS_RelativeHumidity_IsbL-0050_RLatLon0.09_PT026H.grib2 2026-05-03 15:01 312K
20260503T12Z_MSC_RDPS_RelativeHumidity_IsbL-0100_RLatLon0.09_PT026H.grib2 2026-05-03 15:01 285K
20260503T12Z_MSC_RDPS_RelativeHumidity_IsbL-0150_RLatLon0.09_PT026H.grib2 2026-05-03 15:01 407K
20260503T12Z_MSC_RDPS_RelativeHumidity_IsbL-0175_RLatLon0.09_PT026H.grib2 2026-05-03 15:01 471K
20260503T12Z_MSC_RDPS_RelativeHumidity_IsbL-0200_RLatLon0.09_PT026H.grib2 2026-05-03 15:01 552K
20260503T12Z_MSC_RDPS_RelativeHumidity_IsbL-0225_RLatLon0.09_PT026H.grib2 2026-05-03 15:01 627K
20260503T12Z_MSC_RDPS_RelativeHumidity_IsbL-0250_RLatLon0.09_PT026H.grib2 2026-05-03 15:01 696K
20260503T12Z_MSC_RDPS_RelativeHumidity_IsbL-0275_RLatLon0.09_PT026H.grib2 2026-05-03 15:01 723K
20260503T12Z_MSC_RDPS_RelativeHumidity_IsbL-0300_RLatLon0.09_PT026H.grib2 2026-05-03 15:01 762K
20260503T12Z_MSC_RDPS_RelativeHumidity_IsbL-0350_RLatLon0.09_PT026H.grib2 2026-05-03 15:01 786K
20260503T12Z_MSC_RDPS_RelativeHumidity_IsbL-0400_RLatLon0.09_PT026H.grib2 2026-05-03 15:01 795K
20260503T12Z_MSC_RDPS_RelativeHumidity_IsbL-0450_RLatLon0.09_PT026H.grib2 2026-05-03 15:01 794K
20260503T12Z_MSC_RDPS_RelativeHumidity_IsbL-0500_RLatLon0.09_PT026H.grib2 2026-05-03 15:01 796K
20260503T12Z_MSC_RDPS_RelativeHumidity_IsbL-0550_RLatLon0.09_PT026H.grib2 2026-05-03 15:01 813K
20260503T12Z_MSC_RDPS_RelativeHumidity_IsbL-0600_RLatLon0.09_PT026H.grib2 2026-05-03 15:01 833K
20260503T12Z_MSC_RDPS_RelativeHumidity_IsbL-0650_RLatLon0.09_PT026H.grib2 2026-05-03 15:01 849K
20260503T12Z_MSC_RDPS_RelativeHumidity_IsbL-0700_RLatLon0.09_PT026H.grib2 2026-05-03 15:01 882K
20260503T12Z_MSC_RDPS_RelativeHumidity_IsbL-0750_RLatLon0.09_PT026H.grib2 2026-05-03 15:01 919K
20260503T12Z_MSC_RDPS_RelativeHumidity_IsbL-0800_RLatLon0.09_PT026H.grib2 2026-05-03 15:01 1.0M
20260503T12Z_MSC_RDPS_RelativeHumidity_IsbL-0850_RLatLon0.09_PT026H.grib2 2026-05-03 15:01 1.0M
20260503T12Z_MSC_RDPS_RelativeHumidity_IsbL-0875_RLatLon0.09_PT026H.grib2 2026-05-03 15:01 1.1M
20260503T12Z_MSC_RDPS_RelativeHumidity_IsbL-0900_RLatLon0.09_PT026H.grib2 2026-05-03 15:01 1.1M
20260503T12Z_MSC_RDPS_RelativeHumidity_IsbL-0925_RLatLon0.09_PT026H.grib2 2026-05-03 15:01 1.1M
20260503T12Z_MSC_RDPS_RelativeHumidity_IsbL-0950_RLatLon0.09_PT026H.grib2 2026-05-03 15:01 1.1M
20260503T12Z_MSC_RDPS_RelativeHumidity_IsbL-0970_RLatLon0.09_PT026H.grib2 2026-05-03 15:01 1.1M
20260503T12Z_MSC_RDPS_RelativeHumidity_IsbL-0985_RLatLon0.09_PT026H.grib2 2026-05-03 15:01 1.0M
20260503T12Z_MSC_RDPS_RelativeHumidity_IsbL-1000_RLatLon0.09_PT026H.grib2 2026-05-03 15:01 1.0M
20260503T12Z_MSC_RDPS_RelativeHumidity_IsbL-1015_RLatLon0.09_PT026H.grib2 2026-05-03 15:01 1.0M
20260503T12Z_MSC_RDPS_Runoff-Accum_Sfc_RLatLon0.09_PT026H.grib2 2026-05-03 15:01 55K
20260503T12Z_MSC_RDPS_SWEATIndex_Sfc_RLatLon0.09_PT026H.grib2 2026-05-03 15:01 2.5M
20260503T12Z_MSC_RDPS_SeeingIndex_EAtm_RLatLon0.09_PT026H.grib2 2026-05-03 15:01 1.0M
20260503T12Z_MSC_RDPS_SensibleHeatNetFlux_Sfc_RLatLon0.09_PT026H.grib2 2026-05-03 15:01 344K
20260503T12Z_MSC_RDPS_ShowalterIndex_IsbL-0500_RLatLon0.09_PT026H.grib2 2026-05-03 15:01 2.6M
20260503T12Z_MSC_RDPS_SkyTransparencyIndex_EAtm_RLatLon0.09_PT026H.grib2 2026-05-03 15:01 720K
20260503T12Z_MSC_RDPS_Snow-Accum1h_Sfc_RLatLon0.09_PT026H.grib2 2026-05-03 15:01 496K
20260503T12Z_MSC_RDPS_Snow-Accum_Sfc_RLatLon0.09_PT026H.grib2 2026-05-03 15:01 750K
20260503T12Z_MSC_RDPS_SnowDensity_Sfc_RLatLon0.09_PT026H.grib2 2026-05-03 15:01 169K
20260503T12Z_MSC_RDPS_SnowDepth_Sfc_RLatLon0.09_PT026H.grib2 2026-05-03 15:01 651K
20260503T12Z_MSC_RDPS_SoilTemp_DBS-0to10cm_RLatLon0.09_PT026H.grib2 2026-05-03 15:01 225K
20260503T12Z_MSC_RDPS_SoilTemp_Sfc_RLatLon0.09_PT026H.grib2 2026-05-03 15:01 279K
20260503T12Z_MSC_RDPS_SoilVolumetricIceContent_Sfc_RLatLon0.09_PT026H.grib2 2026-05-03 15:01 155K
20260503T12Z_MSC_RDPS_SoilVolumetricWaterContent_DBS-0to10cm_RLatLon0.09_PT026H.grib2 2026-05-03 15:01 275K
20260503T12Z_MSC_RDPS_SoilVolumetricWaterContent_DBS-0to1cm_RLatLon0.09_PT026H.grib2 2026-05-03 15:01 339K
20260503T12Z_MSC_RDPS_SpecificHumidity_AGL-120m_RLatLon0.09_PT026H.grib2 2026-05-03 15:01 500K
20260503T12Z_MSC_RDPS_SpecificHumidity_AGL-2m_RLatLon0.09_PT026H.grib2 2026-05-03 15:01 672K
20260503T12Z_MSC_RDPS_SpecificHumidity_AGL-40m_RLatLon0.09_PT026H.grib2 2026-05-03 15:01 508K
20260503T12Z_MSC_RDPS_SpecificHumidity_AGL-80m_RLatLon0.09_PT026H.grib2 2026-05-03 15:01 503K
20260503T12Z_MSC_RDPS_SpecificHumidity_IsbL-0001_RLatLon0.09_PT026H.grib2 2026-05-03 15:01 400K
20260503T12Z_MSC_RDPS_SpecificHumidity_IsbL-0005_RLatLon0.09_PT026H.grib2 2026-05-03 15:01 373K
20260503T12Z_MSC_RDPS_SpecificHumidity_IsbL-0010_RLatLon0.09_PT026H.grib2 2026-05-03 15:01 403K
20260503T12Z_MSC_RDPS_SpecificHumidity_IsbL-0020_RLatLon0.09_PT026H.grib2 2026-05-03 15:01 384K
20260503T12Z_MSC_RDPS_SpecificHumidity_IsbL-0030_RLatLon0.09_PT026H.grib2 2026-05-03 15:01 378K
20260503T12Z_MSC_RDPS_SpecificHumidity_IsbL-0050_RLatLon0.09_PT026H.grib2 2026-05-03 15:01 491K
20260503T12Z_MSC_RDPS_SpecificHumidity_IsbL-0100_RLatLon0.09_PT026H.grib2 2026-05-03 15:01 542K
20260503T12Z_MSC_RDPS_SpecificHumidity_IsbL-0150_RLatLon0.09_PT026H.grib2 2026-05-03 15:01 446K
20260503T12Z_MSC_RDPS_SpecificHumidity_IsbL-0175_RLatLon0.09_PT026H.grib2 2026-05-03 15:01 434K
20260503T12Z_MSC_RDPS_SpecificHumidity_IsbL-0200_RLatLon0.09_PT026H.grib2 2026-05-03 15:01 470K
20260503T12Z_MSC_RDPS_SpecificHumidity_IsbL-0225_RLatLon0.09_PT026H.grib2 2026-05-03 15:01 463K
20260503T12Z_MSC_RDPS_SpecificHumidity_IsbL-0250_RLatLon0.09_PT026H.grib2 2026-05-03 15:01 572K
20260503T12Z_MSC_RDPS_SpecificHumidity_IsbL-0275_RLatLon0.09_PT026H.grib2 2026-05-03 15:01 488K
20260503T12Z_MSC_RDPS_SpecificHumidity_IsbL-0300_RLatLon0.09_PT026H.grib2 2026-05-03 15:01 460K
20260503T12Z_MSC_RDPS_SpecificHumidity_IsbL-0350_RLatLon0.09_PT026H.grib2 2026-05-03 15:01 554K
20260503T12Z_MSC_RDPS_SpecificHumidity_IsbL-0400_RLatLon0.09_PT026H.grib2 2026-05-03 15:01 531K
20260503T12Z_MSC_RDPS_SpecificHumidity_IsbL-0450_RLatLon0.09_PT026H.grib2 2026-05-03 15:01 576K
20260503T12Z_MSC_RDPS_SpecificHumidity_IsbL-0500_RLatLon0.09_PT026H.grib2 2026-05-03 15:01 508K
20260503T12Z_MSC_RDPS_SpecificHumidity_IsbL-0550_RLatLon0.09_PT026H.grib2 2026-05-03 15:01 562K
20260503T12Z_MSC_RDPS_SpecificHumidity_IsbL-0600_RLatLon0.09_PT026H.grib2 2026-05-03 15:01 630K
20260503T12Z_MSC_RDPS_SpecificHumidity_IsbL-0650_RLatLon0.09_PT026H.grib2 2026-05-03 15:01 548K
20260503T12Z_MSC_RDPS_SpecificHumidity_IsbL-0700_RLatLon0.09_PT026H.grib2 2026-05-03 15:01 591K
20260503T12Z_MSC_RDPS_SpecificHumidity_IsbL-0750_RLatLon0.09_PT026H.grib2 2026-05-03 15:01 644K
20260503T12Z_MSC_RDPS_SpecificHumidity_IsbL-0800_RLatLon0.09_PT026H.grib2 2026-05-03 15:01 724K
20260503T12Z_MSC_RDPS_SpecificHumidity_IsbL-0850_RLatLon0.09_PT026H.grib2 2026-05-03 15:01 814K
20260503T12Z_MSC_RDPS_SpecificHumidity_IsbL-0875_RLatLon0.09_PT026H.grib2 2026-05-03 15:01 838K
20260503T12Z_MSC_RDPS_SpecificHumidity_IsbL-0900_RLatLon0.09_PT026H.grib2 2026-05-03 15:01 847K
20260503T12Z_MSC_RDPS_SpecificHumidity_IsbL-0925_RLatLon0.09_PT026H.grib2 2026-05-03 15:01 846K
20260503T12Z_MSC_RDPS_SpecificHumidity_IsbL-0950_RLatLon0.09_PT026H.grib2 2026-05-03 15:01 851K
20260503T12Z_MSC_RDPS_SpecificHumidity_IsbL-0970_RLatLon0.09_PT026H.grib2 2026-05-03 15:01 704K
20260503T12Z_MSC_RDPS_SpecificHumidity_IsbL-0985_RLatLon0.09_PT026H.grib2 2026-05-03 15:01 699K
20260503T12Z_MSC_RDPS_SpecificHumidity_IsbL-1000_RLatLon0.09_PT026H.grib2 2026-05-03 15:01 695K
20260503T12Z_MSC_RDPS_SpecificHumidity_IsbL-1015_RLatLon0.09_PT026H.grib2 2026-05-03 15:01 686K
20260503T12Z_MSC_RDPS_SpecificHumidity_Sfc_RLatLon0.09_PT026H.grib2 2026-05-03 15:01 311K
20260503T12Z_MSC_RDPS_StormRelativeHelicity_EtaL-10000_RLatLon0.09_PT026H.grib2 2026-05-03 15:01 1.1M
20260503T12Z_MSC_RDPS_StormSeverityIndex_EtaL-10000_RLatLon0.09_PT026H.grib2 2026-05-03 15:01 1.2M
20260503T12Z_MSC_RDPS_Thickness_IsbL-0850to0700_RLatLon0.09_PT026H.grib2 2026-05-03 15:01 251K
20260503T12Z_MSC_RDPS_Thickness_IsbL-1000to0500_RLatLon0.09_PT026H.grib2 2026-05-03 15:01 200K
20260503T12Z_MSC_RDPS_Thickness_IsbL-1000to0850_RLatLon0.09_PT026H.grib2 2026-05-03 15:01 266K
20260503T12Z_MSC_RDPS_TotalCloudCover_Sfc_RLatLon0.09_PT026H.grib2 2026-05-03 15:01 669K
20260503T12Z_MSC_RDPS_TotalTotalsIndex_Sfc_RLatLon0.09_PT026H.grib2 2026-05-03 15:01 2.4M
20260503T12Z_MSC_RDPS_UVIndex-ClearSky_Sfc_RLatLon0.09_PT026H.grib2 2026-05-03 15:01 209K
20260503T12Z_MSC_RDPS_UVIndex_Sfc_RLatLon0.09_PT026H.grib2 2026-05-03 15:01 467K
20260503T12Z_MSC_RDPS_UpwardLongwaveRadiationFlux_NTAtm_RLatLon0.09_PT026H.grib2 2026-05-03 15:01 492K
20260503T12Z_MSC_RDPS_UpwardShortwaveRadiationFlux_NTAtm_RLatLon0.09_PT026H.grib2 2026-05-03 15:01 419K
20260503T12Z_MSC_RDPS_VerticalVelocity_IsbL-0250_RLatLon0.09_PT026H.grib2 2026-05-03 15:01 564K
20260503T12Z_MSC_RDPS_VerticalVelocity_IsbL-0500_RLatLon0.09_PT026H.grib2 2026-05-03 15:01 558K
20260503T12Z_MSC_RDPS_VerticalVelocity_IsbL-0700_RLatLon0.09_PT026H.grib2 2026-05-03 15:01 606K
20260503T12Z_MSC_RDPS_VerticalVelocity_IsbL-0850_RLatLon0.09_PT026H.grib2 2026-05-03 15:01 728K
20260503T12Z_MSC_RDPS_VerticalWindShear_EtaL-6500_RLatLon0.09_PT026H.grib2 2026-05-03 15:01 1.2M
20260503T12Z_MSC_RDPS_WindChill_Sfc_RLatLon0.09_PT026H.grib2 2026-05-03 15:01 1.2M
20260503T12Z_MSC_RDPS_WindDir_AGL-10m_RLatLon0.09_PT026H.grib2 2026-05-03 15:01 1.0M
20260503T12Z_MSC_RDPS_WindDir_AGL-120m_RLatLon0.09_PT026H.grib2 2026-05-03 15:01 621K
20260503T12Z_MSC_RDPS_WindDir_AGL-40m_RLatLon0.09_PT026H.grib2 2026-05-03 15:01 650K
20260503T12Z_MSC_RDPS_WindDir_AGL-80m_RLatLon0.09_PT026H.grib2 2026-05-03 15:01 633K
20260503T12Z_MSC_RDPS_WindDir_IsbL-0001_RLatLon0.09_PT026H.grib2 2026-05-03 15:01 306K
20260503T12Z_MSC_RDPS_WindDir_IsbL-0005_RLatLon0.09_PT026H.grib2 2026-05-03 15:01 384K
20260503T12Z_MSC_RDPS_WindDir_IsbL-0010_RLatLon0.09_PT026H.grib2 2026-05-03 15:01 393K
20260503T12Z_MSC_RDPS_WindDir_IsbL-0020_RLatLon0.09_PT026H.grib2 2026-05-03 15:01 431K
20260503T12Z_MSC_RDPS_WindDir_IsbL-0030_RLatLon0.09_PT026H.grib2 2026-05-03 15:01 430K
20260503T12Z_MSC_RDPS_WindDir_IsbL-0050_RLatLon0.09_PT026H.grib2 2026-05-03 15:01 430K
20260503T12Z_MSC_RDPS_WindDir_IsbL-0100_RLatLon0.09_PT026H.grib2 2026-05-03 15:01 411K
20260503T12Z_MSC_RDPS_WindDir_IsbL-0150_RLatLon0.09_PT026H.grib2 2026-05-03 15:01 420K
20260503T12Z_MSC_RDPS_WindDir_IsbL-0175_RLatLon0.09_PT026H.grib2 2026-05-03 15:01 441K
20260503T12Z_MSC_RDPS_WindDir_IsbL-0200_RLatLon0.09_PT026H.grib2 2026-05-03 15:01 454K
20260503T12Z_MSC_RDPS_WindDir_IsbL-0225_RLatLon0.09_PT026H.grib2 2026-05-03 15:01 457K
20260503T12Z_MSC_RDPS_WindDir_IsbL-0250_RLatLon0.09_PT026H.grib2 2026-05-03 15:01 458K
20260503T12Z_MSC_RDPS_WindDir_IsbL-0275_RLatLon0.09_PT026H.grib2 2026-05-03 15:01 476K
20260503T12Z_MSC_RDPS_WindDir_IsbL-0300_RLatLon0.09_PT026H.grib2 2026-05-03 15:01 474K
20260503T12Z_MSC_RDPS_WindDir_IsbL-0350_RLatLon0.09_PT026H.grib2 2026-05-03 15:01 496K
20260503T12Z_MSC_RDPS_WindDir_IsbL-0400_RLatLon0.09_PT026H.grib2 2026-05-03 15:01 516K
20260503T12Z_MSC_RDPS_WindDir_IsbL-0450_RLatLon0.09_PT026H.grib2 2026-05-03 15:01 527K
20260503T12Z_MSC_RDPS_WindDir_IsbL-0500_RLatLon0.09_PT026H.grib2 2026-05-03 15:01 535K
20260503T12Z_MSC_RDPS_WindDir_IsbL-0550_RLatLon0.09_PT026H.grib2 2026-05-03 15:01 548K
20260503T12Z_MSC_RDPS_WindDir_IsbL-0600_RLatLon0.09_PT026H.grib2 2026-05-03 15:01 571K
20260503T12Z_MSC_RDPS_WindDir_IsbL-0650_RLatLon0.09_PT026H.grib2 2026-05-03 15:01 609K
20260503T12Z_MSC_RDPS_WindDir_IsbL-0700_RLatLon0.09_PT026H.grib2 2026-05-03 15:01 651K
20260503T12Z_MSC_RDPS_WindDir_IsbL-0750_RLatLon0.09_PT026H.grib2 2026-05-03 15:01 701K
20260503T12Z_MSC_RDPS_WindDir_IsbL-0800_RLatLon0.09_PT026H.grib2 2026-05-03 15:01 777K
20260503T12Z_MSC_RDPS_WindDir_IsbL-0850_RLatLon0.09_PT026H.grib2 2026-05-03 15:01 872K
20260503T12Z_MSC_RDPS_WindDir_IsbL-0875_RLatLon0.09_PT026H.grib2 2026-05-03 15:01 905K
20260503T12Z_MSC_RDPS_WindDir_IsbL-0900_RLatLon0.09_PT026H.grib2 2026-05-03 15:01 919K
20260503T12Z_MSC_RDPS_WindDir_IsbL-0925_RLatLon0.09_PT026H.grib2 2026-05-03 15:01 927K
20260503T12Z_MSC_RDPS_WindDir_IsbL-0950_RLatLon0.09_PT026H.grib2 2026-05-03 15:01 923K
20260503T12Z_MSC_RDPS_WindDir_IsbL-0970_RLatLon0.09_PT026H.grib2 2026-05-03 15:01 927K
20260503T12Z_MSC_RDPS_WindDir_IsbL-0985_RLatLon0.09_PT026H.grib2 2026-05-03 15:01 939K
20260503T12Z_MSC_RDPS_WindDir_IsbL-1000_RLatLon0.09_PT026H.grib2 2026-05-03 15:01 958K
20260503T12Z_MSC_RDPS_WindDir_IsbL-1015_RLatLon0.09_PT026H.grib2 2026-05-03 15:01 1.0M
20260503T12Z_MSC_RDPS_WindGust-Max_AGL-10m_RLatLon0.09_PT026H.grib2 2026-05-03 15:01 1.0M
20260503T12Z_MSC_RDPS_WindGust-Min_AGL-10m_RLatLon0.09_PT026H.grib2 2026-05-03 15:01 1.0M
20260503T12Z_MSC_RDPS_WindGust_AGL-10m_RLatLon0.09_PT026H.grib2 2026-05-03 15:01 1.0M
20260503T12Z_MSC_RDPS_WindSpeed_AGL-10m_RLatLon0.09_PT026H.grib2 2026-05-03 15:01 858K
20260503T12Z_MSC_RDPS_WindSpeed_AGL-120m_RLatLon0.09_PT026H.grib2 2026-05-03 15:01 553K
20260503T12Z_MSC_RDPS_WindSpeed_AGL-40m_RLatLon0.09_PT026H.grib2 2026-05-03 15:01 687K
20260503T12Z_MSC_RDPS_WindSpeed_AGL-80m_RLatLon0.09_PT026H.grib2 2026-05-03 15:01 554K
20260503T12Z_MSC_RDPS_WindSpeed_IsbL-0001_RLatLon0.09_PT026H.grib2 2026-05-03 15:01 257K
20260503T12Z_MSC_RDPS_WindSpeed_IsbL-0005_RLatLon0.09_PT026H.grib2 2026-05-03 15:01 381K
20260503T12Z_MSC_RDPS_WindSpeed_IsbL-0010_RLatLon0.09_PT026H.grib2 2026-05-03 15:01 366K
20260503T12Z_MSC_RDPS_WindSpeed_IsbL-0020_RLatLon0.09_PT026H.grib2 2026-05-03 15:01 326K
20260503T12Z_MSC_RDPS_WindSpeed_IsbL-0030_RLatLon0.09_PT026H.grib2 2026-05-03 15:01 324K
20260503T12Z_MSC_RDPS_WindSpeed_IsbL-0050_RLatLon0.09_PT026H.grib2 2026-05-03 15:01 355K
20260503T12Z_MSC_RDPS_WindSpeed_IsbL-0100_RLatLon0.09_PT026H.grib2 2026-05-03 15:01 450K
20260503T12Z_MSC_RDPS_WindSpeed_IsbL-0150_RLatLon0.09_PT026H.grib2 2026-05-03 15:01 388K
20260503T12Z_MSC_RDPS_WindSpeed_IsbL-0175_RLatLon0.09_PT026H.grib2 2026-05-03 15:01 432K
20260503T12Z_MSC_RDPS_WindSpeed_IsbL-0200_RLatLon0.09_PT026H.grib2 2026-05-03 15:01 444K
20260503T12Z_MSC_RDPS_WindSpeed_IsbL-0225_RLatLon0.09_PT026H.grib2 2026-05-03 15:01 451K
20260503T12Z_MSC_RDPS_WindSpeed_IsbL-0250_RLatLon0.09_PT026H.grib2 2026-05-03 15:01 453K
20260503T12Z_MSC_RDPS_WindSpeed_IsbL-0275_RLatLon0.09_PT026H.grib2 2026-05-03 15:01 472K
20260503T12Z_MSC_RDPS_WindSpeed_IsbL-0300_RLatLon0.09_PT026H.grib2 2026-05-03 15:01 471K
20260503T12Z_MSC_RDPS_WindSpeed_IsbL-0350_RLatLon0.09_PT026H.grib2 2026-05-03 15:01 482K
20260503T12Z_MSC_RDPS_WindSpeed_IsbL-0400_RLatLon0.09_PT026H.grib2 2026-05-03 15:01 486K
20260503T12Z_MSC_RDPS_WindSpeed_IsbL-0450_RLatLon0.09_PT026H.grib2 2026-05-03 15:01 472K
20260503T12Z_MSC_RDPS_WindSpeed_IsbL-0500_RLatLon0.09_PT026H.grib2 2026-05-03 15:01 471K
20260503T12Z_MSC_RDPS_WindSpeed_IsbL-0550_RLatLon0.09_PT026H.grib2 2026-05-03 15:01 469K
20260503T12Z_MSC_RDPS_WindSpeed_IsbL-0600_RLatLon0.09_PT026H.grib2 2026-05-03 15:01 596K
20260503T12Z_MSC_RDPS_WindSpeed_IsbL-0650_RLatLon0.09_PT026H.grib2 2026-05-03 15:01 615K
20260503T12Z_MSC_RDPS_WindSpeed_IsbL-0700_RLatLon0.09_PT026H.grib2 2026-05-03 15:01 638K
20260503T12Z_MSC_RDPS_WindSpeed_IsbL-0750_RLatLon0.09_PT026H.grib2 2026-05-03 15:01 713K
20260503T12Z_MSC_RDPS_WindSpeed_IsbL-0800_RLatLon0.09_PT026H.grib2 2026-05-03 15:01 767K
20260503T12Z_MSC_RDPS_WindSpeed_IsbL-0850_RLatLon0.09_PT026H.grib2 2026-05-03 15:01 835K
20260503T12Z_MSC_RDPS_WindSpeed_IsbL-0875_RLatLon0.09_PT026H.grib2 2026-05-03 15:01 858K
20260503T12Z_MSC_RDPS_WindSpeed_IsbL-0900_RLatLon0.09_PT026H.grib2 2026-05-03 15:01 870K
20260503T12Z_MSC_RDPS_WindSpeed_IsbL-0925_RLatLon0.09_PT026H.grib2 2026-05-03 15:01 881K
20260503T12Z_MSC_RDPS_WindSpeed_IsbL-0950_RLatLon0.09_PT026H.grib2 2026-05-03 15:01 876K
20260503T12Z_MSC_RDPS_WindSpeed_IsbL-0970_RLatLon0.09_PT026H.grib2 2026-05-03 15:01 873K
20260503T12Z_MSC_RDPS_WindSpeed_IsbL-0985_RLatLon0.09_PT026H.grib2 2026-05-03 15:01 869K
20260503T12Z_MSC_RDPS_WindSpeed_IsbL-1000_RLatLon0.09_PT026H.grib2 2026-05-03 15:01 866K
20260503T12Z_MSC_RDPS_WindSpeed_IsbL-1015_RLatLon0.09_PT026H.grib2 2026-05-03 15:01 857K
20260503T12Z_MSC_RDPS_WindU_AGL-10m_RLatLon0.09_PT026H.grib2 2026-05-03 15:01 440K
20260503T12Z_MSC_RDPS_WindU_AGL-120m_RLatLon0.09_PT026H.grib2 2026-05-03 15:01 546K
20260503T12Z_MSC_RDPS_WindU_AGL-40m_RLatLon0.09_PT026H.grib2 2026-05-03 15:01 547K
20260503T12Z_MSC_RDPS_WindU_AGL-80m_RLatLon0.09_PT026H.grib2 2026-05-03 15:01 547K
20260503T12Z_MSC_RDPS_WindU_IsbL-0001_RLatLon0.09_PT026H.grib2 2026-05-03 15:01 296K
20260503T12Z_MSC_RDPS_WindU_IsbL-0005_RLatLon0.09_PT026H.grib2 2026-05-03 15:01 284K
20260503T12Z_MSC_RDPS_WindU_IsbL-0010_RLatLon0.09_PT026H.grib2 2026-05-03 15:01 297K
20260503T12Z_MSC_RDPS_WindU_IsbL-0020_RLatLon0.09_PT026H.grib2 2026-05-03 15:01 356K
20260503T12Z_MSC_RDPS_WindU_IsbL-0030_RLatLon0.09_PT026H.grib2 2026-05-03 15:01 355K
20260503T12Z_MSC_RDPS_WindU_IsbL-0050_RLatLon0.09_PT026H.grib2 2026-05-03 15:01 384K
20260503T12Z_MSC_RDPS_WindU_IsbL-0100_RLatLon0.09_PT026H.grib2 2026-05-03 15:01 441K
20260503T12Z_MSC_RDPS_WindU_IsbL-0150_RLatLon0.09_PT026H.grib2 2026-05-03 15:01 403K
20260503T12Z_MSC_RDPS_WindU_IsbL-0175_RLatLon0.09_PT026H.grib2 2026-05-03 15:01 426K
20260503T12Z_MSC_RDPS_WindU_IsbL-0200_RLatLon0.09_PT026H.grib2 2026-05-03 15:01 439K
20260503T12Z_MSC_RDPS_WindU_IsbL-0225_RLatLon0.09_PT026H.grib2 2026-05-03 15:01 344K
20260503T12Z_MSC_RDPS_WindU_IsbL-0250_RLatLon0.09_PT026H.grib2 2026-05-03 15:01 344K
20260503T12Z_MSC_RDPS_WindU_IsbL-0275_RLatLon0.09_PT026H.grib2 2026-05-03 15:01 359K
20260503T12Z_MSC_RDPS_WindU_IsbL-0300_RLatLon0.09_PT026H.grib2 2026-05-03 15:01 356K
20260503T12Z_MSC_RDPS_WindU_IsbL-0350_RLatLon0.09_PT026H.grib2 2026-05-03 15:01 367K
20260503T12Z_MSC_RDPS_WindU_IsbL-0400_RLatLon0.09_PT026H.grib2 2026-05-03 15:01 476K
20260503T12Z_MSC_RDPS_WindU_IsbL-0450_RLatLon0.09_PT026H.grib2 2026-05-03 15:01 477K
20260503T12Z_MSC_RDPS_WindU_IsbL-0500_RLatLon0.09_PT026H.grib2 2026-05-03 15:01 476K
20260503T12Z_MSC_RDPS_WindU_IsbL-0550_RLatLon0.09_PT026H.grib2 2026-05-03 15:01 475K
20260503T12Z_MSC_RDPS_WindU_IsbL-0600_RLatLon0.09_PT026H.grib2 2026-05-03 15:01 482K
20260503T12Z_MSC_RDPS_WindU_IsbL-0650_RLatLon0.09_PT026H.grib2 2026-05-03 15:01 485K
20260503T12Z_MSC_RDPS_WindU_IsbL-0700_RLatLon0.09_PT026H.grib2 2026-05-03 15:01 505K
20260503T12Z_MSC_RDPS_WindU_IsbL-0750_RLatLon0.09_PT026H.grib2 2026-05-03 15:01 534K
20260503T12Z_MSC_RDPS_WindU_IsbL-0800_RLatLon0.09_PT026H.grib2 2026-05-03 15:01 582K
20260503T12Z_MSC_RDPS_WindU_IsbL-0850_RLatLon0.09_PT026H.grib2 2026-05-03 15:01 641K
20260503T12Z_MSC_RDPS_WindU_IsbL-0875_RLatLon0.09_PT026H.grib2 2026-05-03 15:01 661K
20260503T12Z_MSC_RDPS_WindU_IsbL-0900_RLatLon0.09_PT026H.grib2 2026-05-03 15:01 669K
20260503T12Z_MSC_RDPS_WindU_IsbL-0925_RLatLon0.09_PT026H.grib2 2026-05-03 15:01 674K
20260503T12Z_MSC_RDPS_WindU_IsbL-0950_RLatLon0.09_PT026H.grib2 2026-05-03 15:01 669K
20260503T12Z_MSC_RDPS_WindU_IsbL-0970_RLatLon0.09_PT026H.grib2 2026-05-03 15:01 664K
20260503T12Z_MSC_RDPS_WindU_IsbL-0985_RLatLon0.09_PT026H.grib2 2026-05-03 15:01 801K
20260503T12Z_MSC_RDPS_WindU_IsbL-1000_RLatLon0.09_PT026H.grib2 2026-05-03 15:01 799K
20260503T12Z_MSC_RDPS_WindU_IsbL-1015_RLatLon0.09_PT026H.grib2 2026-05-03 15:01 840K
20260503T12Z_MSC_RDPS_WindV_AGL-10m_RLatLon0.09_PT026H.grib2 2026-05-03 15:01 443K
20260503T12Z_MSC_RDPS_WindV_AGL-120m_RLatLon0.09_PT026H.grib2 2026-05-03 15:01 547K
20260503T12Z_MSC_RDPS_WindV_AGL-40m_RLatLon0.09_PT026H.grib2 2026-05-03 15:01 550K
20260503T12Z_MSC_RDPS_WindV_AGL-80m_RLatLon0.09_PT026H.grib2 2026-05-03 15:01 548K
20260503T12Z_MSC_RDPS_WindV_IsbL-0001_RLatLon0.09_PT026H.grib2 2026-05-03 15:01 249K
20260503T12Z_MSC_RDPS_WindV_IsbL-0005_RLatLon0.09_PT026H.grib2 2026-05-03 15:01 286K
20260503T12Z_MSC_RDPS_WindV_IsbL-0010_RLatLon0.09_PT026H.grib2 2026-05-03 15:01 298K
20260503T12Z_MSC_RDPS_WindV_IsbL-0020_RLatLon0.09_PT026H.grib2 2026-05-03 15:01 317K
20260503T12Z_MSC_RDPS_WindV_IsbL-0030_RLatLon0.09_PT026H.grib2 2026-05-03 15:01 317K
20260503T12Z_MSC_RDPS_WindV_IsbL-0050_RLatLon0.09_PT026H.grib2 2026-05-03 15:01 348K
20260503T12Z_MSC_RDPS_WindV_IsbL-0100_RLatLon0.09_PT026H.grib2 2026-05-03 15:01 341K
20260503T12Z_MSC_RDPS_WindV_IsbL-0150_RLatLon0.09_PT026H.grib2 2026-05-03 15:01 402K
20260503T12Z_MSC_RDPS_WindV_IsbL-0175_RLatLon0.09_PT026H.grib2 2026-05-03 15:01 327K
20260503T12Z_MSC_RDPS_WindV_IsbL-0200_RLatLon0.09_PT026H.grib2 2026-05-03 15:01 364K
20260503T12Z_MSC_RDPS_WindV_IsbL-0225_RLatLon0.09_PT026H.grib2 2026-05-03 15:01 368K
20260503T12Z_MSC_RDPS_WindV_IsbL-0250_RLatLon0.09_PT026H.grib2 2026-05-03 15:01 369K
20260503T12Z_MSC_RDPS_WindV_IsbL-0275_RLatLon0.09_PT026H.grib2 2026-05-03 15:01 382K
20260503T12Z_MSC_RDPS_WindV_IsbL-0300_RLatLon0.09_PT026H.grib2 2026-05-03 15:01 380K
20260503T12Z_MSC_RDPS_WindV_IsbL-0350_RLatLon0.09_PT026H.grib2 2026-05-03 15:01 388K
20260503T12Z_MSC_RDPS_WindV_IsbL-0400_RLatLon0.09_PT026H.grib2 2026-05-03 15:01 367K
20260503T12Z_MSC_RDPS_WindV_IsbL-0450_RLatLon0.09_PT026H.grib2 2026-05-03 15:01 369K
20260503T12Z_MSC_RDPS_WindV_IsbL-0500_RLatLon0.09_PT026H.grib2 2026-05-03 15:01 368K
20260503T12Z_MSC_RDPS_WindV_IsbL-0550_RLatLon0.09_PT026H.grib2 2026-05-03 15:01 472K
20260503T12Z_MSC_RDPS_WindV_IsbL-0600_RLatLon0.09_PT026H.grib2 2026-05-03 15:01 480K
20260503T12Z_MSC_RDPS_WindV_IsbL-0650_RLatLon0.09_PT026H.grib2 2026-05-03 15:01 496K
20260503T12Z_MSC_RDPS_WindV_IsbL-0700_RLatLon0.09_PT026H.grib2 2026-05-03 15:01 516K
20260503T12Z_MSC_RDPS_WindV_IsbL-0750_RLatLon0.09_PT026H.grib2 2026-05-03 15:01 541K
20260503T12Z_MSC_RDPS_WindV_IsbL-0800_RLatLon0.09_PT026H.grib2 2026-05-03 15:01 586K
20260503T12Z_MSC_RDPS_WindV_IsbL-0850_RLatLon0.09_PT026H.grib2 2026-05-03 15:01 644K
20260503T12Z_MSC_RDPS_WindV_IsbL-0875_RLatLon0.09_PT026H.grib2 2026-05-03 15:01 656K
20260503T12Z_MSC_RDPS_WindV_IsbL-0900_RLatLon0.09_PT026H.grib2 2026-05-03 15:01 666K
20260503T12Z_MSC_RDPS_WindV_IsbL-0925_RLatLon0.09_PT026H.grib2 2026-05-03 15:01 674K
20260503T12Z_MSC_RDPS_WindV_IsbL-0950_RLatLon0.09_PT026H.grib2 2026-05-03 15:01 670K
20260503T12Z_MSC_RDPS_WindV_IsbL-0970_RLatLon0.09_PT026H.grib2 2026-05-03 15:01 666K
20260503T12Z_MSC_RDPS_WindV_IsbL-0985_RLatLon0.09_PT026H.grib2 2026-05-03 15:01 805K
20260503T12Z_MSC_RDPS_WindV_IsbL-1000_RLatLon0.09_PT026H.grib2 2026-05-03 15:01 803K
20260503T12Z_MSC_RDPS_WindV_IsbL-1015_RLatLon0.09_PT026H.grib2 2026-05-03 15:01 796K